Regional Weather Roundup
Issued by NWS

Home | Current Version | Previous Version | Text Only | Print | Product List | Glossary On
Versions: 1 2 3 4 5 6 7 8 9 10 11 12 13 14 15 16 17 18 19 20 21 22 23 24 25 26 27 28 29 30 31 32 33 34 35 36 37 38 39 40 41 42 43 44 45 46 47 48 49 50
000
ASUS43 KDTX 301410
RWRMI
MICHIGAN HOURLY REGIONAL WEATHER ROUNDUP
NATIONAL WEATHER SERVICE DETROIT/PONTIAC MI
1000 AM EDT THU JUL 30 2015

NOTE: "FAIR" INDICATES FEW OR NO CLOUDS BELOW 12,000 FEET WITH NO
SIGNIFICANT WEATHER AND/OR OBSTRUCTION TO VISIBILITY.

MIZ047>049-052>055-059>063-066>070-074>076-081>083-301500-
SOUTHEAST LOWER MICHIGAN

CITY           SKY/WX    TMP DP  RH WIND       PRES   REMARKS
ADRIAN         SUNNY     74  62  66 W8        30.01S
ALMA           SUNNY     74  61  62 W10       29.96S
ANN ARBOR      SUNNY     75  62  64 W9        29.98S
BAD AXE        SUNNY     73  63  70 W10       29.91F
DETROIT CITY   SUNNY     77  58  51 NW8       29.96S
DETROIT        SUNNY     77  60  55 W13       29.98S
FLINT          SUNNY     78  59  51 W12       29.96S
GROSSE ILE     SUNNY     77  61  57 W6        29.97S
HILLSDALE      SUNNY     75  61  62 NW10      30.03R
HOWELL         SUNNY     75  59  57 W9        29.98S

CITY           SKY/WX    TMP DP  RH WIND       PRES   REMARKS
JACKSON        SUNNY     73  61  65 W9G20     30.00S
LAMBERTVILLE   SUNNY     75  63  64 W6        30.00S
LANSING        SUNNY     75  59  57 W12       29.99R
LAPEER         NOT AVBL
MASON          SUNNY     72  59  63 W10       29.99S
MONROE         SUNNY     75  63  66 W6        29.98F
MT. CLEMENS    SUNNY     78  60  55 W10       29.93S
PONTIAC        SUNNY     75  60  59 W12       29.96S
PORT HOPE        N/A     75  60  59 VRB6G21   29.87S
PORT HURON     SUNNY     73  63  68 W5        29.94S
TRI CITIES     SUNNY     76  59  55 W15       29.94S
YPSILANTI      SUNNY     79  61  53 W13       29.98S
$$
MIZ043>046-050>051-056>058-064>065-071>073-077>080-301500-
SOUTHWEST LOWER MICHIGAN

CITY           SKY/WX    TMP DP  RH WIND       PRES   REMARKS
BATTLE CREEK   SUNNY     76  60  57 NW12      30.02R
BENTON HARBOR  SUNNY     74  62  66 W10       30.03R
BIG RAPIDS     SUNNY     74  55  49 W10G17    29.95S
COLDWATER      SUNNY     73  60  62 W8G17     30.02S
HOLLAND        SUNNY     75  60  59 W12G25    30.02R
GRAND RAPIDS   SUNNY     76  58  53 W14       29.99R
KALAMAZOO      SUNNY     76  60  57 W13       30.02R
MARSHALL       SUNNY     75  61  61 W8        30.01R
MUSKEGON       SUNNY     76  55  48 W15       29.99R
$$
MIZ016>042-301500-
NORTHERN LOWER MICHIGAN

CITY           SKY/WX    TMP DP  RH WIND       PRES   REMARKS
ALPENA         SUNNY     76  57  51 W8G17     29.83F
BEAVER ISLAND  SUNNY     72  59  64 W21       29.84R
BELLAIRE       SUNNY     76  57  52 W8G17     29.88R
CADILLAC       SUNNY     75  56  52 W13G20    29.93S
CHARLEVOIX     SUNNY     73  59  61 W21G30    29.88S
FRANKFORT      SUNNY     73  61  65 W9G16     29.92R
GAYLORD        SUNNY     74  56  53 W10G22    29.88S
GRAYLING       SUNNY     75  56  52 W17G24    29.89F
HARBOR SPRINGS SUNNY     73  61  67 SW9       29.84S
HOUGHTON LAKE  SUNNY     74  56  53 W15G22    29.92R
MANISTEE       SUNNY     72  55  56 W16G23    29.94S
OSCODA         SUNNY     77  56  48 W14G20    29.86F
PELLSTON       SUNNY     75  56  51 W21G31    29.83R
TRAVERSE CITY  SUNNY     79  55  43 W16G22    29.88R
$$
MIZ007>008-015-301500-
EASTERN UPPER MICHIGAN

CITY           SKY/WX    TMP DP  RH WIND       PRES   REMARKS
KINROSS        MOSUNNY   72  55  56 W20G28    29.77S
MACKINAC ISLAN SUNNY     71  56  59 W22G31    29.80S
$$
MIZ004>006-011>014-085-301500-
CENTRAL UPPER MICHIGAN

CITY           SKY/WX    TMP DP  RH WIND       PRES   REMARKS
MANISTIQUE     SUNNY     73  55  53 W14G24    29.82R
ESCANABA       SUNNY     73  55  53 W13G18    29.83S
MENOMINEE      SUNNY     72  55  56 W8G18     29.90R
SAWYER-GWINN   SUNNY     72  54  53 NW18G29   29.84R
$$
MIZ001>003-009>011-084-301500-
WESTERN UPPER MICHIGAN

CITY           SKY/WX    TMP DP  RH WIND       PRES   REMARKS
IRON MOUNTAIN  SUNNY     73  55  53 NW15G23   29.88R
HOUGHTON       SUNNY     67  54  63 W23G31    29.83R
COPPER HARBOR    N/A     63  52  67 N17G31    29.80R
IRONWOOD       SUNNY     70  57  64 W15G23    29.90S
$$

ABBREVIATIONS USED IN REMARKS
   TC - TEMPERATURE IN CELSIUS
  WCI - WIND CHILL INDEX
   HX - HEAT INDEX
  VSB - VISIBILITY



USA.gov is the U.S. government's official web portal to all federal, state and local government web resources and services.